User: anonymous   Login
Location: Aula-Vintri
(58.3875°N, 22.4322°E)
Time: 23:58:56
(UTC+00:00)
Language:

Cosmos 2263 Rocket - Orbit

View from above orbital plane
View from above orbital plane
View from above satellite
View from above satellite

Ground track
Ground track

The orbit data is extracted from the following two-line orbital elements,

1 22803U 93059B   19341.80067677 -.00000136  00000-0 -43927-4 0  9991
2 22803  70.9874 145.2597 0014948  89.6049 270.6787 14.16814809356279
Epoch (UTC): 07 December 2019 19:12:58
Eccentricity: 0.0014948
inclination: 70.9874°
perigee height: 825 km
apogee height: 847 km
right ascension of ascending node: 145.2597°
argument of perigee: 89.6049°
revolutions per day: 14.16814809
mean anomaly at epoch: 270.6787°
orbit number at epoch: 35627

The dashed part of the orbit path shows where the satellite is in the earth's shadow,  

DLR